Location: Endfield
(51.6667°N, 0.0667°W)
Time: 19:23:24
(UTC+00:00)

NOSS 2-1 (E) - Pass Details

Date: 19 May 2024
Orbit: 385 x 1749 km, 63.3° (Epoch: 07 May)

Event Time Altitude Azimuth Distance (km) Brightness Sun altitude
Rises 22:14:44 0° 317° (NW) 2,428 8.1 -14.9°
Reaches altitude 10° 22:16:39 10° 323° (NW) 1,648 7.1 -15.0°
Maximum altitude 22:20:08 48° 40° (NE) 746 4.1 -15.2°
Enters shadow 22:23:50 15° 111° (ESE) 1,815 5.6 -15.5°
